{"data":{"norad_id":59197,"epoch":"2026-05-25T00:40:57.177984Z","epoch_age_seconds":72865,"freshness":"FRESH","line1":"1 59197U 24045V   26145.02843956  .00017484  00000+0  64317-3 0  9998","line2":"2 59197  43.0031  21.6584 0001414 270.0878  89.9811 15.27589952124839","mean_motion":15.27589952,"eccentricity":0.0001414,"inclination_deg":43.0031,"raan_deg":21.6584,"arg_perigee_deg":270.0878,"mean_anomaly_deg":89.9811,"bstar":0.00064317,"rev_number":12483,"period_min":94.266134581121,"perigee_km":482.04912883292,"apogee_km":483.98946383353,"semimajor_km":6861.1562963332,"source":"CELESTRAK","updated_at":"2026-05-25T13:38:18.862832Z"}}